Regional Weather Roundup
Issued by NWS Cleveland, OH

Home | Current Version | Previous Version | Graphics & Text | Print | Product List | Glossary On
Versions: 1 2 3 4 5 6 7 8 9 10 11 12 13 14 15 16 17 18 19 20 21 22 23 24 25 26 27 28 29 30 31 32 33 34 35 36 37 38 39 40 41 42 43 44 45 46 47 48 49 50
000
ASUS41 KCLE 230402
RWRCLE
OHIO REGIONAL WEATHER ROUNDUP
NATIONAL WEATHER SERVICE CLEVELAND, OH
1200 AM EDT THU MAR 23 2017

NOTE: "FAIR" INDICATES FEW OR NO CLOUDS BELOW 12,000 FEET WITH NO
SIGNIFICANT WEATHER AND/OR OBSTRUCTIONS TO VISIBILITY.

OHZ001>008-015>018-024>027-034-035-043-044-230500-
   NORTHWEST OHIO

CITY           SKY/WX    TMP DP  RH WIND       PRES   REMARKS
DEFIANCE       CLEAR     26  14  60 SE7       30.53F WCI  18
FINDLAY        CLOUDY    25  15  66 E6        30.52F WCI  18
TOLEDO EXPRESS CLEAR     24  15  68 SE3       30.54F
TOLEDO EXEC    CLEAR     25  17  72 E5        30.55F WCI  19
LIMA           PTCLDY    25  18  74 E10       30.51S WCI  15
$$

OHZ009>014-019>023-028>033-038-089-230500-
   NORTHEAST OHIO

CITY           SKY/WX    TMP DP  RH WIND       PRES   REMARKS
CLE-HOPKINS    CLEAR     25  13  60 S3        30.57S
CLE-LAKEFRONT  CLEAR     27  15  61 CALM      30.55S
CUY CO. ARPT   NOT AVBL
LORAIN-ELYRIA  CLEAR     22  15  75 CALM      30.55S
ASHTABULA      CLEAR     22  14  71 CALM      30.54S
AKRON-CANTON   CLEAR     20  11  68 NE6       30.51S WCI  12
WOOSTER        CLEAR     22  14  71 NE5       30.52S WCI  16
MANSFIELD      CLOUDY    21  13  71 NE6       30.51R WCI  13
YOUNGSTOWN     CLEAR     21  10  62 CALM      30.51F
$$

OHZ042-051>053-060>062-070>072-077>081-230500-
  SOUTHWEST OHIO

CITY           SKY/WX    TMP DP  RH WIND       PRES   REMARKS
CINC-COVINGTON CLEAR     33  19  56 NE10      30.46S WCI  25
CINC-LUNKEN    CLEAR     31  21  66 NE5       30.51R WCI  26
HAMILTON       CLEAR     31  20  63 E5        30.51R WCI  26
DAYTON         PTCLDY    27  17  66 NE8       30.49S WCI  19
WRIGHT-PAT AFB CLEAR     28  17  64 NE7       30.49F WCI  21
DAYTON GENERAL CLEAR     29  19  66 NE8       30.48R WCI  21
WILMINGTON     CLOUDY    28  21  75 NE10      30.47F WCI  19
$$

OHZ036-037-039>041-045>050-054>059-063>069-073>076-082>088-230500-
  CENTRAL AND SOUTHEAST OHIO

CITY           SKY/WX    TMP DP  RH WIND       PRES   REMARKS
COLUMBUS       CLOUDY    29  16  58 NE9       30.51S WCI  20
OSU AIRPORT    CLOUDY    25  17  72 NE6       30.51S WCI  18
BOLTON FIELD   NOT AVBL
RICKENBACK AFB CLOUDY    27  17  65 NE10      30.51S WCI  17
NEWARK         CLOUDY    28  13  53 NE5       30.51R WCI  23
MARION         PTCLDY    21  15  78 E7        30.52F WCI  12
LANCASTER      CLOUDY    31  17  56 NE10      30.50S WCI  22
ZANESVILLE     CLOUDY    28  12  51 N3        30.51R
NEW PHILLY     NOT AVBL
$$




USA.gov is the U.S. government's official web portal to all federal, state and local government web resources and services.